Location: Bu�n Treun
(12.1333°N, 108.3167°E)
Time: 22:26:14
(UTC+00:00)

Cosmos 2237 Rocket - Pass Details

Date: 13 July 2020
Orbit: 835 x 850 km, 71.0° (Epoch: 14 August)

Event Time Altitude Azimuth Distance (km) Brightness Sun altitude
Rises 13:14:37 0° 207° (SSW) 3,392 5.3 -26.7°
Reaches altitude 10° 13:17:07 10° 212° (SSW) 2,460 4.6 -27.2°
Maximum altitude 13:22:35 51° 287° (WNW) 1,053 2.9 -28.4°
Drops below altitude 10° 13:28:05 10° 2° (N) 2,467 5.0 -29.5°
Sets 13:30:36 0° 8° (N) 3,403 5.7 -30.0°
